AirNav   Everest Fuels
 
 1392 users online  

1B1 Columbia County Airport
Hudson, New York, USA

GOING TO HUDSON?


FAA INFORMATION EFFECTIVE 05 NOVEMBER 2020

Location

FAA Identifier: 1B1
Lat/Long: 42-17-28.7000N 073-42-37.2000W
42-17.478333N 073-42.620000W
42.2913056,-73.7103333
(estimated)
Elevation: 198.1 ft. / 60.4 m (surveyed)
Variation: 13W (1965)
From city: 4 miles NE of HUDSON, NY
Time zone: UTC -5 (UTC -4 during Daylight Saving Time)
Zip code: 12075

Airport Operations

Airport use: Open to the public
Control tower: no
ARTCC: BOSTON CENTER
FSS: BURLINGTON FLIGHT SERVICE STATION
NOTAMs facility: BTV (NOTAM-D service available)
Attendance: 0700-1800
Wind indicator: yes
Segmented circle: yes
Lights: ACTVT REIL RWY 03 & 21; MIRL RWY 03/21 - CTAF.
Beacon: white-green (lighted land airport)
Operates sunset to sunrise.
International operations: customs landing rights airport

Airport Communications

CTAF/UNICOM: 123.05
WX AWOS-3: 133.525 (518-828-2577)
ALBANY APPROACH: 132.825
ALBANY DEPARTURE: 132.825

Nearby radio navigation aids

VOR radial/distance  VOR name  Freq  Var
ALBr184/27.7ALBANY VORTAC115.3013W
PWLr003/31.7PAWLING VOR/DME114.3012W
CTRr283/33.8CHESTER VOR/DME115.1013W
IGNr020/37.9KINGSTON VOR/DME117.6012W

 
NDB name  Hdg/Dist  Freq  Var  ID
PHILMONT027/2.427213WPFH .--. ..-. ....
GREAT BARRINGTON310/15.139514WGBR --. -... .-.
HUNTER178/35.235614WHEU .... . ..-

Airport Services

Fuel available: 100 100LL JET-A1+
Parking: hangars and tiedowns
Airframe service: MAJOR
Powerplant service: MINOR
Bottled oxygen: HIGH
Bulk oxygen: HIGH

Runway Information

Runway 3/21

Dimensions: 5350 x 100 ft. / 1631 x 30 m
Surface: asphalt/grooved, in excellent condition
Weight bearing capacity: 
PCN 29 /F/C/X/T
Single wheel: 69.0
Double wheel: 111.0
Double tandem: 358.0
Runway edge lights: medium intensity
RUNWAY 3  RUNWAY 21
Latitude: 42-17.046325N42-17.909072N
Longitude: 073-42.738582W073-42.500060W
Elevation: 198.1 ft.194.0 ft.
Traffic pattern: leftleft
Runway heading: 024 magnetic, 011 true204 magnetic, 191 true
Displaced threshold: no160 ft.
Markings: nonprecision, in good conditionnonprecision, in good condition
Visual slope indicator: 4-light PAPI on left (3.00 degrees glide path)4-light PAPI on right (3.52 degrees glide path)
Runway end identifier lights: yesyes
Touchdown point: yes, no lightsyes, no lights
Obstructions: 27 ft. tree, 862 ft. from runway, 241 ft. left of centerline, 24:1 slope to clear34 ft. tree, 410 ft. from runway, 233 ft. left of centerline, 6:1 slope to clear

Airport Ownership and Management from official FAA records

Ownership: Publicly-owned
Owner: COUNTY OF COLUMBIA
401 STATE STREET
HUDSON, NY 12534
Phone 518-828-7011
Manager: DEAN KNOX
P.O. BOX 324, 178 ROUTE 23B
HUDSON, NY 12534
Phone 518-828-7011

Airport Operational Statistics

Aircraft based on the field: 18
Single engine airplanes: 15
Multi engine airplanes: 1
Jet airplanes: 2
    
Aircraft operations: avg 53/day *
42% transient general aviation
36% local general aviation
21% air taxi
1% military
* for 12-month period ending 16 August 2019

Additional Remarks

FOR CD CTC ALBANY APCH AT 518-862-2299.

Instrument Procedures

NOTE: All procedures below are presented as PDF files. If you need a reader for these files, you should download the free Adobe Reader.

NOT FOR NAVIGATION. Please procure official charts for flight.
FAA instrument procedures published for use from 05 November 2020 at 0901Z to 03 December 2020 at 0900z.

 
IAPs - Instrument Approach Procedures
RNAV (GPS) RWY 03   download (249KB)
RNAV (GPS) RWY 21   download (288KB)
NOTE: Special Take-Off Minimums/Departure Procedures apply   download (275KB)

Other nearby airports with instrument procedures:

KGBR - Walter J Koladza Airport (15 nm SE)
4B0 - South Albany Airport (17 nm N)
KPSF - Pittsfield Municipal Airport (20 nm NE)
20N - Kingston-Ulster Airport (22 nm SW)
KALB - Albany International Airport (28 nm N)
 
Loc | Ops | Rwys | IFR | FBO | Links
Com | Nav | Svcs | Stats | Notes
Area around 1B1 (Columbia County Airport)
 
Road maps at: MapQuest Bing Google
 
Aerial photo
WARNING: Photo may not be current or correct
Aerial photo of 1B1 (Columbia County Airport)
Photo by Cathy Vajtay
Photo taken 25-Aug-2013
looking southeast from 4500'.

Do you have a better or more recent aerial photo of Columbia County Airport that you would like to share? If so, please send us your photo.

 
Sectional chart

 
Airport distance calculator
Flying to Columbia County Airport? Find the distance to fly.

From to 1B1

Sunrise and sunset
Times for 02-Dec-2020
 Local
(UTC-5)
 Zulu
(UTC)
Morning civil twilight06:3611:36
Sunrise07:0712:07
Sunset16:2221:22
Evening civil twilight16:5321:53

Current date and time
Zulu (UTC)  02-Dec-2020 17:11:29
Local (UTC-5)  02-Dec-2020 12:11:29
 
METAR
KPSF 
21nm NE 
021658Z AUTO 27013KT 2 1/2SM -SN FEW015 BKN027 OVC032 01/M03 A2979 RMK AO2 VIS 1 1/4V5 P0000 T00111028
KALB 
28nm N 
021651Z 26013G20KT 10SM FEW028 BKN041 OVC080 02/M05 A2983 RMK AO2 SLP105 PRESENT WX VCSH T00171050 $
KAQW 
34nm NE 
021652Z AUTO 26005G18KT -SN BKN024 OVC039 02/M02 A2982 RMK AO2 SNB39 SLP104 P0000 T00171022 $
KSCH 
35nm N 
021645Z 26010KT 15SM BKN041 OVC050 03/M04 A2983
KPOU 
40nm S 
021653Z 25014KT 10SM BKN090 05/M03 A2987 RMK AO2 SLP114 T00501028
KDDH 
41nm NE 
021654Z AUTO 22008G16KT 9SM FEW020 BKN031 OVC060 01/M03 A2980 RMK AO2 SNB25E52 SLP098 P0001 T00111028
TAF
KPSF 
21nm NE 
021312Z 0213/0312 22010KT P6SM VCSH SCT025 OVC040 TEMPO 0213/0215 2SM -SHSN BR BKN020 OVC035 FM021500 23010G18KT P6SM BKN025 OVC035 FM021900 27012G20KT P6SM BKN025 OVC040 FM022300 27010G18KT P6SM BKN040 FM030400 26008KT P6SM SCT040 FM030600 25005KT P6SM SKC
NOTAMs
Click for the latest NOTAMs
NOTAMs are issued by the DoD/FAA and will open in a separate window not controlled by AirNav.

 

 
 

FBO, Fuel Providers, and Aircraft Ground Support

  
 Business Name 
 
 Contact 
 
 Services / Description 
 
Fuel Prices
 
Comments
  
Richmor Aviation 518-828-9461
toll-free 1-800-359-2299
[web site]
[email]
Aviation fuel, Aircraft ground handling, Oxygen service, Aircraft parking (ramp or tiedown), Hangars, GPU / Power cart, Flight training, Aircraft rental, ...

More info about Richmor Aviation
independent
100LL Jet A
FS --- $3.99 
SS $3.99 --- 
 Updated 01-Dec-2020
 
   3 read write
FS=Full service
SS=Self service
Update Fuel Prices
 

Would you like to see your business listed on this page?

 If your business provides an interesting product or service to pilots, flight crews, aircraft, or users of the Columbia County Airport, you should consider listing it here.  To start the listing process, click on the button below
 
Add a business
 

Other Pages about Columbia County Airport

Update a link
 
Copyright © AirNav, LLC. All rights reserved. Privacy Policy  Contact